This demonstration page uses our WeatherBlox Daily Observations layout. Learn more.

39.92423, -83.80882

Hourly Observations for July 21, 2018

Temp ( °F °C ) Dew Point ( °F °C ) Humidity (%) Winds ( mph kmh ) Pressure ( in mb ) Visibility ( mi km ) Precip ( " mm )
12:56 am 00:56 Clear 64 17.8 64 17.8 100 100 S 6 9 29.81 1010 10 16.0934 0.01 0.254
1:56 am 01:56 Clear 64 17.8 64 17.8 100 100 S 7 11 29.79 1009 10 16.0934 0 0
2:56 am 02:56 Clear 64 17.8 64 17.8 100 100 S 7 11 29.78 1008 10 16.0934 0 0
3:56 am 03:56 Clear 65 18.3 65 18.3 100 100 SSW 8 13 29.76 1008 10 16.0934 0 0
4:56 am 04:56 Clear 65 18.3 65 18.3 100 100 SSW 5 7 29.75 1007 10 16.0934 0 0
5:56 am 05:56 Clear 65 18.3 65 18.3 100 100 SSW 6 9 29.76 1008 8 12.87472 0 0
6:56 am 06:56 Partly Cloudy with Mist and Fog 65 18.3 65 18.3 100 100 S 7 11 29.75 1008 3 4.82802 0 0
7:30 am 07:30 Partly Cloudy with Mist and Fog 64 18 64 18 100 100 S 5 7 29.74 1007 2.5 4.02335 0 0
7:56 am 07:56 Partly Cloudy with Mist and Fog 65 18.3 65 18.3 100 100 S 5 7 29.76 1008 2.5 4.02335 0 0
8:12 am 08:12 Partly Cloudy with Mist and Fog 64 18 64 18 100 100 S 6 9 29.74 1007 3 4.82802 0 0
8:23 am 08:23 Partly Cloudy with Mist and Fog 64 18 64 18 100 100 S 6 9 29.74 1007 2.5 4.02335 0 0
8:56 am 08:56 Partly Cloudy with Mist and Fog 65 18.3 65 18.3 100 100 S 8 13 29.78 1008 3 4.82802 0 0
9:56 am 09:56 Partly Cloudy with Mist and Fog 66 18.9 66 18.9 100 100 S 7 11 29.78 1009 4 6.43736 0 0
10:14 am 10:14 Partly Cloudy with Mist and Fog 66 19 66 19 100 100 S 6 9 29.77 1008 2.5 4.02335 0 0
10:24 am 10:24 Partly Cloudy with Mist and Fog 66 19 66 19 100 100 VRB 6 9 29.77 1008 3 4.82802 0 0
10:56 am 10:56 Sunny 67 19.4 67 19.4 100 100 S 5 7 29.78 1009 7 11.26538 0 0
11:56 am 11:56 Sunny 67 19.4 66 18.9 97 97 S 7 11 29.79 1009 8 12.87472 0 0
12:56 pm 12:56 Sunny 69 20.6 68 20 96 96 SSE 8 13 29.76 1008 8 12.87472 0 0.0254
1:56 pm 13:56 Sunny 72 22.2 69 20.6 91 91 SSE 6 9 29.75 1007 10 16.0934 0 0
2:56 pm 14:56 Sunny 75 23.9 69 20.6 82 82 S 5 7 29.74 1007 10 16.0934 0 0.0254
3:56 pm 15:56 Partly Cloudy with Light Rain 69 20.6 69 20.6 100 100 S 3 6 29.73 1007 10 16.0934 0.1 2.54
4:56 pm 16:56 Sunny 71 21.7 68 20 90 90 W 6 9 29.73 1007 10 16.0934 0 0.0254
5:56 pm 17:56 Sunny 73 22.8 68 20 84 84 SSW 6 9 29.72 1007 10 16.0934 0 0
6:56 pm 18:56 Sunny 73 22.8 68 20 84 84 undefined N/A 29.72 1007 10 16.0934 0 0
7:56 pm 19:56 Sunny 71 21.7 69 20.6 94 94 S 5 7 29.72 1007 10 16.0934 0 0
8:56 pm 20:56 Sunny 69 20.6 69 20.6 100 100 Calm 29.73 1007 10 16.0934 0 0
9:56 pm 21:56 Clear 68 20 68 20 100 100 S 3 6 29.74 1007 10 16.0934 0 0
10:56 pm 22:56 Clear 67 19.4 67 19.4 100 100 Calm 29.73 1007 8 12.87472 0 0
11:56 pm 23:56 Mostly Clear with Mist and Fog 66 18.9 66 18.9 100 100 ESE 3 6 29.72 1006 5 8.0467 0 0

Powered by AerisWeather